Wind_Speed
1 4 4 1 1 1 6 10 19 17 11 10 17 19 18 9 8 5 7 10 12 13 17 17 19 19 19 19 19 19 15 17 18 16 8 3 7 7 8 10 11 10 12 14
3 6 4 1 2 5 7 15 14 9 9 14 17 22 16 9 8 2 8 11 12 14 14 18 18 19 20 20 20 19 15 16 17 16 13 7 7 8 8 9 10 9 8 11
5 2 3 1 3 5 8 10 9 17 22 10 10 10 2 6 7 5 8 9 10 12 15 15 18 18 19 20 20 19 15 14 16 17 13 8 8 9 10 7 6 6 8 12
6 2 2 5 3 2 6 3 12 17 7 5 2 6 4 6 7 7 11 12 12 13 13 13 17 19 18 19 19 18 14 12 13 15 13 10 7 6 4 6 6 5 9 12
2 2 2 3 2 1 7 14 13 3 4 5 5 4 2 3 7 4 12 12 12 12 13 14 16 17 16 17 18 16 14 11 13 13 11 9 7 6 5 3 4 4 9 9
3 0 2 2 2 2 10 6 3 1 2 4 4 2 5 3 2 7 12 13 13 14 13 13 16 15 15 16 15 14 15 12 13 12 11 10 8 7 5 5 4 5 6 6
2 2 2 2 3 3 9 7 4 3 2 3 4 5 9 5 4 5 11 12 11 12 13 13 13 16 16 16 16 15 16 15 14 12 11 10 8 6 6 4 4 4 5 6
2 2 1 2 2 1 6 3 2 7 5 7 2 6 2 1 3 6 7 8 8 11 11 12 14 15 15 15 15 16 16 15 13 11 11 10 9 7 6 7 6 9 8 7
1 2 3 2 1 2 4 2 2 4 2 4 4 4 4 2 5 10 9 9 10 12 12 12 15 15 15 15 15 15 15 14 13 11 10 10 10 9 9 9 12 13 12 12
3 4 1 3 2 5 2 7 1 2 5 7 5 5 5 2 11 15 11 10 10 11 11 11 12 14 14 14 13 13 13 14 13 11 10 11 11 12 12 14 18 19 19 19
4 1 2 2 4 3 3 3 3 2 3 4 6 1 2 3 9 13 11 9 9 9 10 10 13 14 13 13 13 13 14 14 13 12 13 14 15 17 18 21 23 24 24 25
4 1 3 0 1 2 1 2 3 2 2 4 4 6 4 2 5 8 10 7 7 7 8 9 12 12 12 13 14 14 15 16 15 14 16 18 20 22 25 27 28 30 32 32
5 2 4 2 2 2 4 5 3 4 1 6 3 4 3 2 4 6 7 6 5 6 8 9 10 10 11 11 12 14 15 17 17 18 20 23 24 25 26 30 34 36 37 36
5 2 5 4 2 2 3 5 9 4 3 2 8 10 4 6 7 6 6 6 6 6 6 7 8 10 10 10 12 14 17 18 17 20 22 23 24 25 27 29 34 37 35 38
1 4 1 5 2 3 4 5 11 11 4 6 2 5 14 7 5 4 5 5 5 5 6 7 8 9 10 10 12 15 18 20 20 20 23 24 25 25 27 30 29 36 34 32
2 1 1 4 1 3 6 9 11 13 5 12 11 12 5 1 2 3 2 2 3 3 3 5 6 9 11 11 12 14 15 17 17 19 21 23 24 26 25 24 25 36 34 30
4 3 1 4 1 4 6 6 12 5 7 5 5 1 3 4 3 3 2 2 1 1 2 2 3 5 7 8 9 12 13 14 15 17 17 17 18 20 21 21 27 31 28 27
5 3 1 4 3 2 1 1 3 6 6 14 3 5 5 3 2 4 5 4 6 5 5 3 1 4 5 5 7 9 10 11 12 13 13 14 16 17 19 23 27 22 22 22
1 2 1 3 2 7 2 4 7 7 4 14 12 5 4 2 2 3 6 6 4 5 3 1 1 2 3 6 6 9 9 9 10 9 10 12 15 18 19 22 23 20 19 18
4 4 1 2 3 3 2 3 5 2 3 9 12 11 9 8 5 4 10 8 9 9 7 6 5 4 5 6 6 7 8 8 8 8 11 13 14 16 18 17 16 16 17 17
4 4 6 4 5 8 2 6 6 1 3 6 12 12 14 8 1 6 11 7 11 12 12 8 6 5 7 8 9 9 8 8 9 12 13 14 14 15 15 17 16 16 17 16
8 9 5 4 4 6 8 7 6 2 1 4 9 10 12 4 6 7 10 10 12 12 12 11 8 8 8 9 9 9 9 11 12 12 12 12 12 12 12 13 12 12 12 11
4 5 3 9 5 2 13 1 3 2 4 7 11 11 14 12 10 14 12 13 15 16 14 13 12 11 12 14 13 12 13 13 13 13 12 11 10 10 10 10 10 9 7 6
6 4 3 2 3 12 10 12 5 6 4 6 11 14 17 13 15 16 13 13 15 17 16 15 14 14 15 18 17 16 16 16 15 13 12 11 10 10 9 8 7 6 6 5
1 7 4 7 10 6 12 14 10 12 6 6 10 13 18 12 14 16 12 12 16 18 18 20 21 19 22 21 21 20 18 18 17 15 14 13 11 10 8 6 6 6 6 7
7 7 6 7 6 2 4 3 11 14 15 12 14 11 12 12 13 12 11 18 20 22 22 23 24 24 26 25 24 22 22 22 20 18 17 14 12 10 10 9 8 10 8 7
Wind_Direction
56 246 255 257 121 285 286 292 301 304 333 282 268 278 287 250 227 254 324 333 333 328 328 329 332 333 334 335 330 322 331 333 331 327 321 283 270 258 244 253 254 247 247 253
217 242 121 150 236 275 295 304 308 313 273 294 280 287 284 228 229 253 330 339 331 327 331 335 338 341 343 335 332 325 338 336 327 322 316 292 284 270 269 256 254 253 247 252
253 83 130 296 304 305 300 286 311 305 322 276 294 273 232 199 201 220 329 336 331 332 331 333 338 342 341 336 332 331 336 337 324 322 315 305 278 257 264 251 228 243 263 263
259 112 202 266 275 356 309 104 317 319 320 316 3 296 238 186 210 223 342 340 338 337 334 331 334 338 340 335 333 333 341 345 328 325 322 322 296 276 251 280 281 279 288 273
74 192 218 268 145 216 261 321 308 292 259 312 179 258 177 190 220 307 345 343 338 337 335 330 331 331 334 338 339 338 348 351 338 336 335 337 321 309 332 298 288 303 291 293
276 223 245 294 284 232 307 311 281 203 251 248 168 262 266 209 218 317 343 344 341 333 334 333 334 335 341 345 347 349 357 356 349 347 350 356 348 352 5 345 339 348 327 325
192 177 134 318 274 159 17 336 327 271 253 308 168 255 280 178 211 302 330 330 333 333 335 336 340 342 342 347 353 360 3 360 356 355 3 2 6 25 45 34 15 28 22 13
297 247 196 4 32 29 57 10 34 299 316 313 284 240 314 116 248 271 314 309 338 342 342 337 338 338 340 347 357 4 4 1 0 6 13 13 25 44 65 67 83 75 78 68
196 237 118 57 129 281 116 60 87 265 201 273 247 260 144 202 312 323 344 343 355 346 342 337 337 341 343 349 358 7 7 7 12 18 24 34 43 58 71 82 97 95 95 96
123 274 157 134 160 58 42 139 204 159 309 296 280 281 309 341 331 319 341 347 353 343 340 336 342 346 349 352 356 11 18 21 24 34 42 47 58 74 85 99 97 100 101 104
143 253 130 166 201 160 157 161 135 244 243 294 310 349 69 31 319 308 328 343 352 340 330 333 346 351 351 360 9 20 28 33 40 50 58 66 70 85 94 91 96 98 103 101
165 248 258 168 360 325 24 171 165 208 164 237 281 280 144 94 315 300 323 336 352 332 323 337 349 349 358 6 16 28 34 41 51 63 71 73 80 87 87 87 90 97 90 96
164 205 287 193 189 177 225 179 155 109 113 226 270 314 187 210 325 309 320 343 330 308 341 347 351 355 1 11 20 30 38 47 58 69 74 76 77 80 81 87 93 96 95 93
150 259 253 257 311 52 204 188 186 184 213 181 238 294 291 349 352 339 338 346 307 328 356 347 353 357 0 17 30 36 42 53 60 68 71 74 74 77 80 85 88 93 94 96
183 256 233 272 280 250 263 208 192 202 191 235 12 261 305 334 313 311 314 312 318 346 8 9 359 358 11 26 37 45 52 62 66 70 75 75 79 82 85 86 89 94 87 86
141 254 278 268 133 223 269 229 214 228 235 264 286 284 212 117 239 246 238 295 325 353 15 15 6 17 19 31 44 53 54 62 69 72 76 84 86 87 84 88 88 93 92 87
172 202 272 268 287 277 275 219 188 180 199 189 206 192 175 178 163 220 179 189 228 299 11 10 25 36 47 53 68 67 69 76 71 68 77 87 91 94 93 94 88 90 90 92
153 159 209 287 301 272 332 150 209 230 218 210 262 222 211 142 159 245 213 183 192 202 188 180 136 70 55 59 72 85 89 89 92 86 87 92 94 96 98 100 98 96 93 88
222 151 232 282 276 303 184 200 183 186 279 196 194 185 206 172 218 213 204 203 190 206 205 179 245 80 73 90 88 99 95 95 98 99 101 104 108 103 103 103 102 100 100 97
119 88 261 179 255 254 245 189 197 208 276 190 174 175 170 174 174 176 180 181 184 192 198 187 167 144 135 128 122 120 115 116 110 113 112 114 116 113 110 110 109 108 105 101
162 194 212 207 260 280 154 149 164 221 249 179 177 168 165 185 228 128 148 170 175 176 180 177 175 168 160 153 152 143 139 135 133 127 124 123 122 121 120 116 111 110 107 108
175 164 188 178 223 279 149 119 193 207 69 185 168 173 181 162 159 168 168 166 176 178 178 181 178 182 179 173 164 160 162 156 148 142 139 136 131 125 121 120 119 115 114 110
237 206 190 207 220 45 196 223 212 195 149 195 189 173 175 165 186 176 182 181 186 187 184 182 183 183 187 187 186 184 182 169 163 161 157 152 146 143 141 141 139 133 130 123
224 178 250 299 220 234 218 225 222 200 231 198 206 178 179 182 180 185 183 184 186 188 190 187 190 197 200 198 198 199 192 182 179 179 177 173 170 168 168 170 168 163 164 158
140 151 216 259 275 263 245 229 213 208 210 205 186 188 194 183 188 186 186 188 188 186 189 192 196 204 208 203 204 200 198 193 191 193 193 191 193 190 192 197 203 207 212 209
186 187 193 231 224 223 257 202 191 194 201 200 180 181 200 195 189 186 194 191 187 187 187 193 203 207 211 208 208 205 203 201 198 200 202 202 202 206 213 219 229 228 226 239
Height
810 800 791 800 806 809 811 814 801 790 797 806 793 787 784 790 802 802 802 801 800 800 799 795 790 784 778 774 770 766 758 755 753 749 744 738 736 737 735 736 738 737 742 745
805 790 801 810 810 810 803 799 788 791 793 798 790 779 780 791 795 804 805 800 800 798 796 792 787 782 776 772 768 764 756 753 752 749 745 741 739 737 736 735 738 739 738 741
795 800 809 810 805 806 795 795 794 802 796 794 794 769 786 792 797 799 800 805 802 799 794 790 784 781 776 772 768 762 756 752 752 749 745 741 738 735 735 735 735 738 733 736
803 810 808 805 805 812 804 800 808 805 812 777 803 766 768 783 790 794 797 802 802 799 795 791 785 780 776 772 767 761 755 751 751 747 742 737 736 736 736 735 732 734 732 731
795 807 807 809 803 813 799 805 806 810 813 815 793 798 749 788 782 787 796 801 802 800 796 792 788 782 776 771 766 760 754 750 749 745 742 736 734 733 731 730 731 731 728 723
808 815 813 808 810 813 810 805 805 814 809 794 790 786 740 766 789 793 799 801 803 800 796 792 788 783 776 770 765 759 753 750 747 743 739 735 734 731 729 728 728 727 724 723
805 808 816 817 808 810 808 802 766 761 768 744 791 787 752 787 796 801 806 806 806 801 797 792 787 782 776 770 764 758 753 750 746 743 738 736 734 731 730 730 729 726 725 726
787 774 813 821 816 814 817 819 799 786 758 762 785 781 750 796 802 807 810 810 802 800 797 793 788 783 776 770 764 758 754 751 748 743 739 736 733 731 731 732 731 729 729 728
794 791 819 822 822 819 820 811 831 830 838 823 767 762 790 795 795 795 806 802 801 800 797 794 789 784 778 772 766 760 757 753 749 745 742 739 735 733 733 732 730 731 731 730
818 791 812 822 824 823 816 826 818 826 796 759 736 766 749 787 799 796 804 802 802 800 797 793 789 785 780 775 769 763 759 755 751 748 744 741 739 737 736 735 733 732 733 733
824 821 809 820 818 804 819 816 827 831 825 796 775 736 791 802 806 805 805 804 803 800 796 793 790 787 782 776 771 767 762 758 755 751 748 745 743 742 741 739 738 736 737 737
820 818 791 804 832 829 824 818 818 805 803 820 817 770 798 807 811 810 805 806 803 799 796 794 792 788 783 778 773 769 765 761 758 755 752 750 749 748 747 745 743 743 743 743
820 803 775 788 822 826 824 828 830 834 837 810 796 734 805 810 809 808 809 808 803 797 797 796 792 788 784 780 776 773 769 766 763 761 758 756 756 755 754 752 750 749 750 752
816 815 800 756 773 811 814 824 827 821 812 798 793 767 777 789 803 805 808 809 804 803 801 797 793 790 786 782 779 776 773 770 768 767 764 763 762 762 761 761 759 757 760 759
817 813 831 817 834 836 819 818 821 822 813 793 782 811 781 792 804 809 812 808 804 802 800 799 796 792 789 786 783 780 778 776 775 773 771 770 770 769 768 768 769 767 767 770
825 807 832 815 845 846 822 812 819 820 823 825 816 807 789 807 813 808 808 808 805 803 800 799 797 795 792 790 788 786 784 783 782 781 779 779 778 777 777 778 777 772 775 777
821 816 817 769 824 818 780 790 808 805 810 792 778 761 798 794 794 796 801 806 804 802 801 800 799 797 794 793 792 791 790 789 788 787 787 787 787 786 786 785 782 781 786 788
822 822 822 789 804 737 753 812 803 784 785 795 792 789 785 785 793 797 801 800 800 800 799 799 798 798 797 795 795 795 795 795 795 794 793 793 793 793 792 791 790 793 794 795
819 813 810 798 785 750 756 793 788 771 734 767 773 784 791 800 800 789 796 801 799 798 799 801 799 799 799 798 798 799 799 799 800 800 800 799 798 797 797 796 797 799 800 802
817 820 811 815 765 731 733 770 782 778 728 760 763 776 788 788 761 769 790 795 799 799 797 797 798 799 800 800 801 801 802 804 804 805 803 802 802 801 801 802 803 804 805 805
813 815 810 811 781 750 752 769 775 734 720 756 756 765 777 766 759 772 782 789 792 795 796 796 797 798 800 802 803 804 805 806 806 806 805 805 805 805 806 805 806 806 807 809
794 802 805 808 796 738 764 771 746 729 753 750 754 761 765 765 774 778 778 783 787 790 794 796 798 799 800 801 803 805 806 806 807 807 808 808 808 808 808 809 810 811 811 812
781 765 763 765 734 739 750 735 739 746 742 751 748 752 756 765 767 770 773 777 781 784 789 793 796 799 800 802 803 804 805 806 807 808 809 810 811 812 812 813 813 813 814 814
775 773 765 760 732 736 739 736 742 745 740 739 740 746 751 751 758 764 767 772 776 781 785 789 793 795 797 799 801 804 805 806 807 808 809 810 811 812 812 813 813 813 813 814
756 769 759 751 730 731 728 726 724 735 741 740 741 743 745 750 756 759 765 769 773 778 782 785 788 791 792 795 798 800 802 805 807 809 810 811 811 811 811 811 811 812 812 813
752 739 737 714 710 707 706 713 716 723 728 733 735 741 745 747 750 756 759 763 767 770 775 780 783 787 789 792 793 795 797 799 802 805 806 807 808 809 809 810 811 812 812 811